www.pogodaiklimat.ru

Погода и климат >> Архив погоды >> Украина >> Мелитополь


ПОГОДА в Мелитополе

  • Прогноз погоды в Мелитополе
  • Монитор погоды в Мелитополе

АРХИВ ПОГОДЫ в Мелитополе

Время (UTC), дата Ветер
(напр.,м/с)
 
Видим.   Явления Облачность Т
(С)
Тd
(С)
f
(%)
Тe
(С)
Тes
(С)
Комфортность P
(гПа)
Po
(гПа)
Тmin
(С)
Tmax
(С)
R
(мм)
R24
(мм)
S
(см)
15 12.08 СВ 2 20 км 3/0
[Ac trans Ci fib]
+30.5 +13.9 36 +32 +34 жарко 1016.7 1012.8
18 12.08 штиль 0 18 км ясно +24.3 +15.3 57 +27 +27 жарко 1017.7 1013.7 +32.1
21 12.08 штиль 0 14 км ясно +20.7 +16.4 76 +24 +24 комфорт 1018.4 1014.4
00 13.08 В 1 8000 м дымка ясно +19.4 +18.1 92 +23 +23 комфорт 1018.4 1014.3
03 13.08 штиль 0 4000 м дымка ясно +18.1 +16.2 89 +18 +18 1018.7 1014.6
06 13.08 ЮВ 2 20 км ясно +25.9 +19.0 66 +31 +38 очень
душно
1018.7 1014.7 +18.1
09 13.08 В 2 20 км 1/1 1000 м
[Cu hum]
+29.0 +15.3 43 +32 +45 душно 1018.6 1014.7
12 13.08 ЮВ 2 20 км ясно +30.2 +13.7 36 +32 +43 жарко 1017.2 1013.3
15 13.08 Ю 1 20 км ясно +28.6 +12.8 38 +30 +32 жарко 1016.0 1012.1
18 13.08 штиль 0 18 км ясно +21.8 +14.3 62 +25 +25 комфорт 1016.4 1012.4 +30.7
21 13.08 штиль 0 14 км ясно +18.5 +13.6 73 +19 +19 1016.3 1012.3
00 14.08 В 2 18 км ясно +20.4 +10.4 53 +23 +23 комфорт 1015.5 1011.4
03 14.08 СВ 1 20 км ясно +18.1 +12.3 69 +19 +19 1015.3 1011.3
06 14.08 В 2 20 км ясно +26.5 +13.8 46 +29 +36 жарко 1014.9 1011.0 +17.9
09 14.08 ЮВ 4 20 км ясно +30.3 +12.3 33 +31 +41 жарко 1013.1 1009.2
12 14.08 В 3 20 км ясно +31.7 +8.8 24 +31 +40 жарко 1011.8 1007.9
15 14.08 В 3 20 км ясно +30.4 +9.7 28 +30 +31 жарко 1010.6 1006.7
18 14.08 штиль 0 19 км ясно +24.5 +12.5 47 +26 +26 жарко 1010.1 1006.2 +32.5
21 14.08 В 1 17 км ясно +20.5 +12.3 59 +24 +24 комфорт 1009.2 1005.2
00 15.08 В 2 17 км ясно +20.9 +11.5 55 +24 +24 комфорт 1008.7 1004.7
03 15.08 В 1 20 км 1/0
[Ac trans]
+18.0 +13.6 75 +19 +19 1009.1 1005.1
06 15.08 В 1 20 км 9/0
[Ci]
+26.7 +13.1 43 +28 +35 жарко 1008.5 1004.6 +17.9
09 15.08 В 2 20 км 8/0
[Ac trans Cc]
+32.2 +13.5 32 +33 +45 жарко 1006.8 1003.0
12 15.08 ЮВ 1 20 км 10/3 600 м
[Cb cap Ac und Cs]
+29.4 +13.3 37 +31 +35 жарко 1006.5 1002.6
15 15.08 З 1 20 км 9/0
[Ac trans Ci fib]
+27.3 +16.3 51 +31 +32 душно 1007.2 1003.3
18 15.08 штиль 0 18 км 9/0
[Ac trans]
+24.4 +16.8 63 +28 +28 душно 1007.1 1003.2 +32.7
21 15.08 СЗ 2 19 км 4/0
[Ac trans Ci fib]
+23.7 +14.1 55 +26 +26 жарко 1007.3 1003.4
00 16.08 СЗ 2 17 км 8/0
[Ac trans Ci]
+22.0 +14.3 62 +25 +25 комфорт 1007.0 1003.0
03 16.08 СЗ 1 10 км 9/8 600 м
[Sc Ci fib]
+20.5 +14.7 69 +24 +24 комфорт 1007.6 1003.6
06 16.08 С 1 20 км 9/0
[Ac As Ci fib]
+23.9 +16.2 62 +27 +32 жарко 1007.6 1003.7 +20.5
09 16.08 СЗ 1 20 км 9/0
[Ac As Cc]
+29.3 +15.7 44 +32 +39 душно 1007.5 1003.6
12 16.08 З 1 20 км 10/0
[Ac As]
+30.3 +14.4 38 +32 +36 жарко 1007.0 1003.1
18 16.08 штиль 0 18 км {ливн. осадки} 10/4 600 м
[Cb cap Ac und]
+25.4 +18.0 64 +30 +30 душно 1008.0 1004.1 +31.0 0.0
21 16.08 С 4 15 км 6/0
[Ac trans]
+22.9 +17.1 70 +28 +28 душно 1008.9 1004.9
00 17.08 СЗ 2 13 км гроза без осадков 10/8 600 м
[Cb calv Ac und]
+20.3 +16.3 78 +24 +24 комфорт 1009.1 1005.1
03 17.08 СЗ 1 4000 м дымка {гроза, ливн. осадки} 9/3 600 м
[Cb cap Ac trans]
+18.0 +17.0 94 +19 +19 1009.6 1005.6
06 17.08 СЗ 3 10 км {гроза, ливн. осадки} 8/8 600 м
[Sc]
+19.3 +16.5 84 +21 +22 комфорт 1010.4 1006.4 +17.7 5
12 17.08 С 2 20 км 8/8 600 м
[Sc]
+22.7 +14.2 59 +26 +28 жарко 1010.2 1006.2
18 17.08 штиль 0 16 км 6/0
[Cs]
+20.1 +14.0 68 +22 +22 комфорт 1011.2 1007.2 +24.9
00 18.08 штиль 0 8000 м дымка 8/0
[Cs]
+14.7 +13.6 93 +14 +14 1011.8 1007.7
06 18.08 С 2 20 км 6/0
[Ac trans Ci fib]
+18.1 +14.5 79 +19 +24 1012.6 1008.6 +13.6
12 18.08 С 2 20 км 9/9 1000 м
[Sc]
+22.7 +14.4 59 +26 +27 жарко 1013.2 1009.2
18 18.08 С 1 16 км 9/9 1000 м
[Sc]
+20.8 +14.5 67 +25 +25 комфорт 1014.9 1010.9 +23.2
00 19.08 С 2 13 км 8/0
[Ac trans]
+17.9 +14.6 81 +18 +18 1015.9 1011.8
06 19.08 С 2 20 км ясно +21.6 +15.0 66 +25 +31 комфорт 1017.5 1013.5 +16.5
12 19.08 СВ 1 20 км 3/3 1000 м
[Cu hum]
+28.9 +13.6 39 +31 +39 жарко 1016.9 1012.9

 

Местоположение метеостанции Мелитополь (Запорожская область, Украина): широта 46.83 долгота 35.37 высота над уровнем моря 34 м.

В архиве по умолчанию представлена погода в Мелитополе за последнюю неделю. Архивные данные за месяц целиком и за предыдущие месяцы, начиная с января 2011 года, Вы можете получить, выбрав интересующий диапазон дат из раскрывающегося списка и нажав кнопку "Ввод!".


*Определитесь, кто Вы:
робот инопланетянин человек

Внимание! Время в таблицах - всемирное. Для получения местного времени необходимо прибавить поправку, которая равна 2 ч.

Смотрите также архив погоды в соседних городах и на ближайших метеорологических станциях:

Погода в Ботиево (Запорожская область, Украина) (40 км)
Погода в Пришибе (Запорожская область, Украина) (49 км)
Погода в Нижних Серогозах (Херсонская область, Украина) (74 км)
Погода в Геническе (Херсонская область, Украина) (85 км)
Погода в Кирилловке (Запорожская область, Украина) (92 км)
Погода в Бердянске (Запорожская область, Украина) (108 км)
Погода в Никополе (Днепропетровская область, Украина) (109 км)
Погода в Запорожье (Запорожская область, Украина) (111 км)
Погода в Гуляйполе (Запорожская область, Украина) (115 км)
Погода в Аскании-Нове (Херсонская область, Украина) (121 км)

Пояснения к столбцам:

Ветер - указаны скорость ветра в м/с - средняя за 10 мин, порывы в срок и между сроками (в фигурных скобках) и направление, откуда дует ветер: С - северный, СВ - северо-восточный, В - восточный, ЮВ - юго-восточный, Ю - южный, ЮЗ - юго-западный, З - западный, СЗ - северо-западный.
Видимость - горизонтальная дальность видимости в метрах или километрах. При видимости от 1 до 10 км при отсутствии осадков обычно наблюдается дымка, при ухудшении видимости до 1 км и менее - туман. В сухую погоду видимость может ухудшаться дымом, пылью или мглою.
Явления - указаны атмосферные явления, наблюдавшиеся в срок или в последний час перед сроком; фигурными скобками обозначены явления, наблюдавшиеся между сроками (за 1-3 часа до срока); квадратными скобками обозначены град или гололедные отложения с указанием их диаметра в мм.
Облачность - указаны через наклонную черту общая и нижняя облачность в баллах и высота нижней границы облаков в метрах; квадратными скобками обозначены формы облаков: Ci - перистые, Cs - перисто-слоистые, Cc - перисто-кучевые, Ac - высококучевые, As - высокослоистые, Sc - слоисто-кучевые, Ns - слоисто-дождевые, Cu - кучевые, Cb - кучево-дождевые. Подробнее классификацию облаков см. в Атласе облаков (PDF).
T - Температура воздуха - температура, измеренная на высоте 2 м над землей.
Td - Температура точки росы - температура, при понижении до которой содержащийся в воздухе водяной пар достигнет насыщения.
f - Относительная влажность воздуха - влажноcть воздуха, измеренная на высоте 2 м над землей.
Te - Эффективная температура - температура, которую ощущает одетый по сезону человек в тени. Характеристика душности погоды. При расчете учитывается влияние влажности воздуха и скорости ветра на теплоощущения человека.
Tes - Эффективная температура на солнце - температура, которую ощущает человек, с поправкой на солнечный нагрев. Характеристика знойности погоды. Зависит от высоты солнца над горизонтом, облачности и скорости ветра. Ночью, в пасмурную погоду, а также при ветре 12 м/с и более поправка равна нулю.
P - Атмосферное давление - приведенное к уровню моря атмосферное давление.
Po - Атмосферное давление - измеренное на уровне метеостанции атмосферное давление.
Tmin - Минимальная температура - минимум температуры воздуха на высоте 2 м над землей.
Tmax - Максимальная температура - максимум температуры воздуха на высоте 2 м над землей.
R - Количество осадков - Количество выпавших осадков за период времени, мм. При наведении курсора мыши на число - период времени, за который выпало указанное количество осадков.
R24 - Количество осадков - Количество выпавших осадков за 24 часа, мм.
S - Снежный покров - Высота снежного покрова, см. При наведении курсора мыши на число - состояние снежного покрова и степень покрытия местности в баллах.